Location: Cheb
(50.0670°N, 12.3670°E)
Time: 05:10:01
(UTC+02:00)

ISS - Pass Details

Date: 31 March 2019
Orbit: 408 x 410 km, 51.6° (Epoch: 21 April)

Event Time Altitude Azimuth Distance (km) Brightness Sun altitude
Rises 20:59:52 0° 281° (WNW) 2,338 1.8 -13.1°
Reaches altitude 10° 21:01:58 10° 284° (WNW) 1,475 0.4 -13.4°
Maximum altitude 21:05:15 72° 9° (N) 434 -3.7 -13.9°
Enters shadow 21:06:55 27° 89° (E) 828 -2.8 -14.1°
